| time (UTC) | temp F | wind direction | speed knots | gust knots | rain 1hr in | rain 24hr in | rain mn in | humidity % | barometer mb |
| 20260505084513 | 65 | 266 | 0.0 | 0.0 | 0.00 | 0.00 | 0.00 | 59 | 1019.6 |
| 20260505084010 | 65 | 266 | 0.0 | 0.0 | 0.00 | 0.00 | 0.00 | 59 | 1019.6 |
| 20260505083501 | 66 | 266 | 0.0 | 0.0 | 0.00 | 0.00 | 0.00 | 58 | 1019.4 |
| 20260505082955 | 66 | 266 | 0.0 | 0.0 | 0.00 | 0.00 | 0.00 | 56 | 1019.4 |
| 20260505082449 | 66 | 266 | 0.0 | 0.0 | 0.00 | 0.00 | 0.00 | 56 | 1019.3 |
| 20260505081942 | 66 | 266 | 0.0 | 0.0 | 0.00 | 0.00 | 0.00 | 55 | 1019.2 |
| 20260505081439 | 67 | 266 | 0.0 | 0.0 | 0.00 | 0.00 | 0.00 | 55 | 1019.1 |
| 20260505080931 | 67 | 263 | 0.0 | 0.0 | 0.00 | 0.00 | 0.00 | 53 | 1019.0 |
| 20260505080424 | 67 | 263 | 0.0 | 0.0 | 0.00 | 0.00 | 0.00 | 51 | 1018.9 |
| 20260505075919 | 68 | 263 | 0.0 | 0.0 | 0.00 | 0.00 | 0.00 | 49 | 1018.7 |
| 20260505075640 | 69 | 263 | 0.0 | 0.0 | 0.00 | 0.00 | 0.00 | 47 | 1018.6 |
| 20260505075128 | 69 | 263 | 0.0 | 0.0 | 0.00 | 0.00 | 0.00 | 47 | 1018.4 |
| 20260505074400 | 69 | 263 | 0.0 | 0.0 | 0.00 | 0.00 | 0.00 | 46 | 1018.3 |
| 20260505073854 | 70 | 263 | 0.0 | 0.0 | 0.00 | 0.00 | 0.00 | 46 | 1018.2 |
| 20260505073349 | 70 | 263 | 0.0 | 0.0 | 0.00 | 0.00 | 0.00 | 45 | 1018.2 |
| 20260505072842 | 71 | 263 | 0.0 | 0.0 | 0.00 | 0.00 | 0.00 | 44 | 1018.1 |
| 20260505072338 | 71 | 263 | 0.0 | 0.0 | 0.00 | 0.00 | 0.00 | 44 | 1018.0 |
| 20260505071831 | 71 | 263 | 0.0 | 0.0 | 0.00 | 0.00 | 0.00 | 43 | 1018.0 |
| 20260505071324 | 72 | 263 | 0.0 | 0.0 | 0.00 | 0.00 | 0.00 | 43 | 1017.9 |
| 20260505070819 | 72 | 263 | 0.0 | 0.0 | 0.00 | 0.00 | 0.00 | 42 | 1017.8 |
| 20260505070312 | 73 | 263 | 0.0 | 0.0 | 0.00 | 0.00 | 0.00 | 42 | 1017.8 |
| 20260505065808 | 73 | 263 | 0.0 | 0.0 | 0.00 | 0.00 | 0.00 | 41 | 1017.7 |
| 20260505065300 | 74 | 263 | 0.0 | 0.0 | 0.00 | 0.00 | 0.00 | 41 | 1017.6 |
| 20260505064754 | 74 | 263 | 0.0 | 0.0 | 0.00 | 0.00 | 0.00 | 40 | 1017.6 |
| 20260505064248 | 74 | 263 | 0.0 | 0.0 | 0.00 | 0.00 | 0.00 | 40 | 1017.5 |
| 20260505063742 | 74 | 263 | 0.0 | 0.0 | 0.00 | 0.00 | 0.00 | 39 | 1017.4 |
| 20260505063238 | 75 | 263 | 0.0 | 0.0 | 0.00 | 0.00 | 0.00 | 39 | 1017.4 |
| 20260505062949 | 75 | 263 | 0.0 | 0.0 | 0.00 | 0.00 | 0.00 | 39 | 1017.4 |
| 20260505062225 | 75 | 263 | 0.0 | 0.0 | 0.00 | 0.00 | 0.00 | 39 | 1017.4 |
| 20260505061719 | 75 | 263 | 0.0 | 0.9 | 0.00 | 0.00 | 0.00 | 39 | 1017.4 |
| 20260505061212 | 75 | 263 | 0.0 | 0.9 | 0.00 | 0.00 | 0.00 | 40 | 1017.4 |
| 20260505060708 | 75 | 263 | 0.9 | 11.3 | 0.00 | 0.00 | 0.00 | 40 | 1017.4 |
| 20260505060201 | 75 | 262 | 0.9 | 11.3 | 0.00 | 0.00 | 0.00 | 40 | 1017.3 |
| 20260505055919 | 76 | 262 | 0.0 | 1.7 | 0.00 | 0.00 | 0.00 | 40 | 1017.3 |
| 20260505055148 | 75 | 263 | 2.6 | 13.0 | 0.00 | 0.00 | 0.00 | 40 | 1017.2 |
| 20260505054643 | 75 | 262 | 4.3 | 13.0 | 0.00 | 0.00 | 0.00 | 39 | 1017.2 |
| 20260505054139 | 75 | 262 | 1.7 | 13.0 | 0.00 | 0.00 | 0.00 | 39 | 1017.3 |
| 20260505053631 | 75 | 281 | 1.7 | 13.0 | 0.00 | 0.00 | 0.00 | 39 | 1017.3 |
| 20260505053124 | 75 | 281 | 2.6 | 13.0 | 0.00 | 0.00 | 0.00 | 39 | 1017.2 |
| 20260505052619 | 75 | 264 | 1.7 | 12.2 | 0.00 | 0.00 | 0.00 | 40 | 1017.3 |
| 20260505052112 | 75 | 264 | 0.9 | 12.2 | 0.00 | 0.00 | 0.00 | 39 | 1017.2 |
| 20260505051831 | 76 | 264 | 0.9 | 12.2 | 0.00 | 0.00 | 0.00 | 39 | 1017.1 |
| 20260505051101 | 76 | 264 | 1.7 | 13.0 | 0.00 | 0.00 | 0.00 | 39 | 1017.2 |
| 20260505050555 | 76 | 275 | 0.9 | 13.0 | 0.00 | 0.00 | 0.00 | 39 | 1017.1 |
| 20260505041454 | 75 | 170 | 2.6 | 11.3 | 0.00 | 0.00 | 0.00 | 42 | 1016.6 |
| 20260505041216 | 75 | 177 | 3.5 | 14.8 | 0.00 | 0.00 | 0.00 | 42 | 1016.6 |
| 20260505040443 | 75 | 288 | 7.0 | 14.8 | 0.00 | 0.00 | 0.00 | 44 | 1016.6 |
| 20260505035939 | 75 | 283 | 4.3 | 14.8 | 0.00 | 0.00 | 0.00 | 44 | 1016.6 |
| 20260505035652 | 74 | 231 | 0.9 | 9.6 | 0.00 | 0.00 | 0.00 | 45 | 1016.6 |
| 20260505034925 | 74 | 221 | 1.7 | 13.0 | 0.00 | 0.00 | 0.00 | 45 | 1016.6 |
| 20260505034642 | 74 | 272 | 3.5 | 16.5 | 0.00 | 0.00 | 0.00 | 44 | 1016.6 |
| 20260505033912 | 74 | 265 | 6.1 | 16.5 | 0.00 | 0.00 | 0.00 | 45 | 1016.7 |
| 20260505033637 | 74 | 255 | 8.7 | 16.5 | 0.00 | 0.00 | 0.00 | 44 | 1016.8 |
| 20260505032900 | 74 | 301 | 4.3 | 16.5 | 0.00 | 0.00 | 0.00 | 45 | 1016.8 |
| 20260505032356 | 74 | 278 | 0.9 | 15.6 | 0.00 | 0.00 | 0.00 | 46 | 1016.9 |
| 20260505031848 | 74 | 271 | 0.9 | 9.6 | 0.00 | 0.00 | 0.00 | 46 | 1016.8 |
| 20260505031343 | 73 | 198 | 0.0 | 1.7 | 0.00 | 0.00 | 0.00 | 48 | 1016.9 |
| 20260505030838 | 73 | 293 | 0.0 | 0.9 | 0.00 | 0.00 | 0.00 | 48 | 1017.0 |
| 20260505030331 | 73 | 291 | 0.0 | 0.9 | 0.00 | 0.00 | 0.00 | 48 | 1017.1 |
| 20260505025824 | 72 | 262 | 1.7 | 20.9 | 0.00 | 0.00 | 0.00 | 49 | 1017.2 |
| 20260505025319 | 72 | 258 | 4.3 | 20.9 | 0.00 | 0.00 | 0.00 | 50 | 1017.2 |
| 20260505024813 | 72 | 254 | 7.0 | 22.6 | 0.00 | 0.00 | 0.00 | 48 | 1017.1 |
| 20260505024309 | 72 | 266 | 7.0 | 22.6 | 0.00 | 0.00 | 0.00 | 48 | 1017.2 |
| 20260505023801 | 72 | 255 | 3.5 | 20.9 | 0.00 | 0.00 | 0.00 | 49 | 1017.3 |
| 20260505023255 | 72 | 254 | 2.6 | 20.9 | 0.00 | 0.01 | 0.00 | 48 | 1017.2 |
| 20260505022507 | 71 | 246 | 11.3 | 24.3 | 0.00 | 0.01 | 0.00 | 50 | 1017.3 |
| 20260505022002 | 71 | 281 | 12.2 | 24.3 | 0.00 | 0.01 | 0.00 | 50 | 1017.3 |
| 20260505021230 | 71 | 296 | 9.6 | 21.7 | 0.00 | 0.01 | 0.00 | 50 | 1017.3 |
| 20260505020725 | 71 | 291 | 8.7 | 23.5 | 0.00 | 0.01 | 0.00 | 50 | 1017.6 |
| 20260505020219 | 71 | 280 | 9.6 | 23.5 | 0.00 | 0.01 | 0.00 | 51 | 1017.7 |
| 20260505015712 | 71 | 239 | 3.5 | 21.7 | 0.00 | 0.01 | 0.00 | 51 | 1017.7 |
| 20260505015208 | 71 | 268 | 4.3 | 20.0 | 0.00 | 0.01 | 0.00 | 53 | 1017.8 |
| 20260505014700 | 70 | 267 | 5.2 | 20.0 | 0.00 | 0.01 | 0.00 | 52 | 1017.8 |
| 20260505014154 | 70 | 230 | 6.1 | 18.2 | 0.00 | 0.01 | 0.00 | 52 | 1017.9 |
| 20260505013648 | 70 | 276 | 5.2 | 27.8 | 0.00 | 0.02 | 0.00 | 52 | 1018.1 |
| 20260505013142 | 69 | 291 | 6.1 | 27.8 | 0.00 | 0.02 | 0.00 | 55 | 1018.1 |
| 20260505013114 | 69 | 282 | 10.4 | 30.4 | 0.00 | 0.03 | 0.00 | 54 | 1018.3 |
| 20260505012357 | 69 | 269 | 11.3 | 30.4 | 0.00 | 0.04 | 0.00 | 54 | 1018.2 |
| 20260505011624 | 69 | 233 | 11.3 | 26.1 | 0.00 | 0.06 | 0.00 | 56 | 1018.3 |
| 20260505011608 | 68 | 280 | 11.3 | 27.8 | 0.00 | 0.07 | 0.00 | 56 | 1018.3 |
| 20260505010612 | 68 | 271 | 10.4 | 27.8 | 0.00 | 0.07 | 0.00 | 56 | 1018.5 |
| 20260505010109 | 68 | 283 | 8.7 | 23.5 | 0.00 | 0.08 | 0.00 | 57 | 1018.5 |
| 20260505005601 | 68 | 250 | 9.6 | 26.1 | 0.00 | 0.08 | 0.00 | 58 | 1018.5 |
| 20260505005054 | 67 | 275 | 13.0 | 26.1 | 0.00 | 0.08 | 0.00 | 57 | 1018.7 |
| 20260505004548 | 67 | 271 | 13.0 | 26.1 | 0.00 | 0.09 | 0.00 | 59 | 1018.6 |
| 20260505004042 | 67 | 242 | 8.7 | 26.1 | 0.00 | 0.09 | 0.00 | 59 | 1018.7 |
| 20260505003538 | 67 | 247 | 8.7 | 22.6 | 0.00 | 0.10 | 0.00 | 60 | 1018.7 |
| 20260505003257 | 66 | 250 | 13.0 | 31.3 | 0.00 | 0.10 | 0.00 | 61 | 1018.7 |
| 20260505002524 | 66 | 281 | 13.0 | 31.3 | 0.00 | 0.11 | 0.00 | 62 | 1018.7 |
| 20260505002018 | 66 | 226 | 11.3 | 27.8 | 0.00 | 0.11 | 0.00 | 63 | 1018.8 |
| 20260505001742 | 66 | 258 | 5.2 | 19.1 | 0.00 | 0.11 | 0.00 | 65 | 1018.9 |
| 20260505001008 | 66 | 296 | 2.6 | 13.9 | 0.00 | 0.12 | 0.00 | 67 | 1019.0 |
| 20260505000501 | 65 | 295 | 4.3 | 14.8 | 0.00 | 0.12 | 0.00 | 68 | 1019.0 |
| 20260504235955 | 65 | 302 | 7.0 | 20.0 | 0.00 | 0.12 | 0.00 | 68 | 1019.0 |
| 20260504235449 | 65 | 271 | 9.6 | 20.9 | 0.00 | 0.12 | 0.00 | 69 | 1018.9 |
| 20260504235207 | 64 | 293 | 11.3 | 20.9 | 0.00 | 0.13 | 0.00 | 69 | 1018.8 |
| 20260504234717 | 64 | 273 | 12.2 | 20.9 | 0.00 | 0.14 | 0.00 | 70 | 1018.8 |
| 20260504233947 | 64 | 251 | 10.4 | 21.7 | 0.00 | 0.14 | 0.00 | 70 | 1018.9 |
| 20260504233447 | 64 | 275 | 9.6 | 21.7 | 0.00 | 0.15 | 0.00 | 72 | 1018.9 |
| 20260504232947 | 64 | 291 | 8.7 | 18.2 | 0.00 | 0.16 | 0.00 | 73 | 1018.9 |
| 20260504232448 | 63 | 285 | 10.4 | 22.6 | 0.00 | 0.16 | 0.00 | 72 | 1019.0 |
| 20260504231947 | 63 | 329 | 11.3 | 22.6 | 0.00 | 0.17 | 0.00 | 72 | 1019.0 |
| 20260504231717 | 63 | 293 | 12.2 | 21.7 | 0.00 | 0.18 | 0.00 | 71 | 1018.9 |
| 20260504230949 | 63 | 301 | 11.3 | 21.7 | 0.00 | 0.18 | 0.00 | 71 | 1018.9 |
| 20260504230448 | 62 | 304 | 6.1 | 20.9 | 0.00 | 0.19 | 0.00 | 73 | 1019.0 |
| 20260504225947 | 62 | 277 | 1.7 | 20.9 | 0.00 | 0.20 | 0.00 | 75 | 1019.0 |
| 20260504225448 | 61 | 296 | 3.5 | 13.0 | 0.00 | 0.20 | 0.00 | 77 | 1019.0 |
| 20260504225211 | 61 | 296 | 2.6 | 13.0 | 0.00 | 0.20 | 0.00 | 79 | 1019.0 |
| 20260504224449 | 60 | 293 | 0.0 | 0.0 | 0.00 | 0.20 | 0.00 | 81 | 1019.1 |
| 20260504223949 | 59 | 293 | 0.0 | 0.0 | 0.00 | 0.20 | 0.00 | 83 | 1019.3 |
| 20260504223441 | 59 | 293 | 0.0 | 0.0 | 0.00 | 0.20 | 0.00 | 85 | 1019.2 |
| 20260504222938 | 58 | 293 | 0.0 | 0.0 | 0.00 | 0.20 | 0.00 | 86 | 1019.3 |
| 20260504222433 | 58 | 293 | 0.0 | 0.0 | 0.00 | 0.20 | 0.00 | 88 | 1019.3 |
| 20260504222158 | 57 | 293 | 0.0 | 0.0 | 0.00 | 0.20 | 0.00 | 89 | 1019.2 |
| 20260504221434 | 56 | 293 | 0.0 | 0.0 | 0.00 | 0.20 | 0.00 | 90 | 1019.2 |
| 20260504220933 | 56 | 293 | 0.0 | 0.0 | 0.00 | 0.20 | 0.00 | 90 | 1019.4 |
| 20260504220430 | 56 | 293 | 0.0 | 0.0 | 0.00 | 0.20 | 0.00 | 91 | 1019.4 |
| 20260504215928 | 56 | 293 | 0.0 | 0.0 | 0.00 | 0.20 | 0.00 | 91 | 1019.4 |
| 20260504215429 | 55 | 293 | 0.0 | 0.0 | 0.00 | 0.20 | 0.00 | 91 | 1019.3 |
| 20260504214928 | 55 | 293 | 0.0 | 0.0 | 0.00 | 0.20 | 0.00 | 91 | 1019.2 |
| 20260504214427 | 54 | 293 | 0.0 | 0.0 | 0.00 | 0.20 | 0.00 | 91 | 1018.9 |
| 20260504213929 | 54 | 293 | 0.0 | 0.0 | 0.00 | 0.20 | 0.00 | 91 | 1018.7 |
| 20260504213426 | 54 | 293 | 0.0 | 0.0 | 0.00 | 0.20 | 0.00 | 90 | 1018.5 |
| 20260504212929 | 53 | 293 | 0.0 | 0.0 | 0.00 | 0.20 | 0.00 | 91 | 1018.4 |
| 20260504212427 | 53 | 293 | 0.0 | 0.0 | 0.00 | 0.20 | 0.00 | 90 | 1018.4 |
| 20260504211926 | 53 | 293 | 0.0 | 0.0 | 0.00 | 0.21 | 0.00 | 90 | 1018.3 |
| 20260504211428 | 53 | 293 | 0.0 | 0.0 | 0.00 | 0.21 | 0.00 | 90 | 1018.3 |
| 20260504210924 | 53 | 293 | 0.0 | 0.0 | 0.00 | 0.21 | 0.00 | 90 | 1018.2 |
| 20260504210418 | 53 | 293 | 0.0 | 0.0 | 0.00 | 0.21 | 0.00 | 89 | 1018.2 |
| 20260504205911 | 53 | 293 | 0.0 | 0.0 | 0.00 | 0.21 | 0.00 | 90 | 1018.0 |
| 20260504205410 | 53 | 293 | 0.0 | 0.0 | 0.00 | 0.21 | 0.00 | 89 | 1017.9 |
| 20260504204908 | 53 | 293 | 0.0 | 0.0 | 0.00 | 0.21 | 0.00 | 89 | 1017.8 |
| 20260504204409 | 53 | 293 | 0.0 | 0.0 | 0.00 | 0.21 | 0.00 | 89 | 1017.7 |
| 20260504204401 | 53 | 293 | 0.0 | 0.0 | 0.00 | 0.21 | 0.00 | 89 | 1017.6 |
| 20260504203407 | 53 | 293 | 0.0 | 0.0 | 0.00 | 0.21 | 0.00 | 89 | 1017.5 |
| 20260504202907 | 53 | 293 | 0.0 | 0.0 | 0.00 | 0.21 | 0.00 | 89 | 1017.5 |
| 20260504202404 | 53 | 293 | 0.0 | 0.0 | 0.00 | 0.21 | 0.00 | 88 | 1017.5 |
| 20260504202132 | 54 | 293 | 0.0 | 0.0 | 0.00 | 0.21 | 0.00 | 88 | 1017.5 |
| 20260504201400 | 54 | 293 | 0.0 | 0.0 | 0.00 | 0.21 | 0.00 | 88 | 1017.4 |
| 20260504200859 | 54 | 293 | 0.0 | 0.0 | 0.00 | 0.21 | 0.00 | 88 | 1017.4 |
| 20260504200359 | 54 | 293 | 0.0 | 0.0 | 0.00 | 0.21 | 0.00 | 88 | 1017.3 |
| 20260504195859 | 54 | 293 | 0.0 | 0.0 | 0.00 | 0.21 | 0.00 | 88 | 1017.3 |
| 20260504195358 | 54 | 293 | 0.0 | 0.0 | 0.00 | 0.21 | 0.00 | 88 | 1017.2 |
| 20260504194857 | 55 | 293 | 0.0 | 0.0 | 0.00 | 0.21 | 0.00 | 87 | 1017.1 |
| 20260504194358 | 55 | 293 | 0.0 | 0.0 | 0.00 | 0.21 | 0.00 | 88 | 1017.2 |
| 20260504193857 | 55 | 293 | 0.0 | 0.0 | 0.00 | 0.21 | 0.00 | 87 | 1017.1 |
| 20260504193352 | 55 | 293 | 0.0 | 0.0 | 0.00 | 0.21 | 0.00 | 87 | 1017.0 |
| 20260504193122 | 56 | 293 | 0.0 | 0.0 | 0.00 | 0.21 | 0.00 | 87 | 1017.0 |
| 20260504192351 | 56 | 293 | 0.0 | 0.0 | 0.00 | 0.21 | 0.00 | 87 | 1016.9 |
| 20260504192109 | 56 | 293 | 0.0 | 0.0 | 0.00 | 0.21 | 0.00 | 87 | 1016.9 |
| 20260504191351 | 56 | 293 | 0.0 | 0.0 | 0.00 | 0.21 | 0.00 | 87 | 1016.9 |
| 20260504190851 | 56 | 293 | 0.0 | 0.0 | 0.00 | 0.21 | 0.00 | 87 | 1016.9 |
| 20260504190617 | 56 | 293 | 0.0 | 0.0 | 0.00 | 0.21 | 0.00 | 87 | 1016.9 |
| 20260504185853 | 56 | 293 | 0.0 | 0.0 | 0.00 | 0.21 | 0.00 | 87 | 1016.9 |
| 20260504185351 | 56 | 293 | 0.0 | 0.0 | 0.00 | 0.21 | 0.00 | 87 | 1016.8 |
| 20260504184850 | 56 | 293 | 0.0 | 0.0 | 0.00 | 0.21 | 0.00 | 87 | 1016.7 |
| 20260504184353 | 56 | 293 | 0.0 | 0.0 | 0.00 | 0.21 | 0.00 | 87 | 1016.7 |
| 20260504183853 | 56 | 293 | 0.0 | 0.0 | 0.00 | 0.21 | 0.00 | 86 | 1016.6 |
| 20260504183614 | 57 | 293 | 0.0 | 0.0 | 0.00 | 0.21 | 0.00 | 86 | 1016.5 |
| 20260504182852 | 57 | 293 | 0.0 | 0.0 | 0.00 | 0.21 | 0.00 | 86 | 1016.4 |
| 20260504182352 | 57 | 293 | 0.0 | 0.0 | 0.00 | 0.21 | 0.00 | 87 | 1016.5 |
| 20260504181848 | 57 | 293 | 0.0 | 0.0 | 0.00 | 0.21 | 0.00 | 87 | 1016.4 |
| 20260504181348 | 57 | 293 | 0.0 | 0.0 | 0.00 | 0.21 | 0.00 | 87 | 1016.5 |
| 20260504181120 | 57 | 293 | 0.0 | 0.0 | 0.00 | 0.21 | 0.00 | 87 | 1016.5 |
| 20260504180349 | 57 | 293 | 0.0 | 0.0 | 0.00 | 0.21 | 0.00 | 87 | 1016.4 |
| 20260504175848 | 57 | 293 | 0.0 | 0.0 | 0.00 | 0.21 | 0.00 | 87 | 1016.4 |
| 20260504175346 | 57 | 293 | 0.0 | 0.0 | 0.00 | 0.21 | 0.00 | 87 | 1016.3 |
| 20260504174848 | 57 | 293 | 0.0 | 0.0 | 0.00 | 0.21 | 0.00 | 87 | 1016.3 |
| 20260504174348 | 58 | 293 | 0.0 | 0.0 | 0.00 | 0.21 | 0.00 | 87 | 1016.2 |
| 20260504173848 | 58 | 293 | 0.0 | 0.0 | 0.00 | 0.21 | 0.00 | 87 | 1016.3 |
| 20260504173612 | 58 | 293 | 0.0 | 0.0 | 0.00 | 0.21 | 0.00 | 87 | 1016.3 |
| 20260504172843 | 58 | 293 | 0.0 | 0.0 | 0.00 | 0.21 | 0.00 | 87 | 1016.3 |
| 20260504172342 | 58 | 293 | 0.0 | 0.0 | 0.00 | 0.21 | 0.00 | 87 | 1016.2 |
| 20260504171845 | 58 | 293 | 0.0 | 0.0 | 0.00 | 0.21 | 0.00 | 87 | 1016.3 |
| 20260504171559 | 58 | 293 | 0.0 | 0.0 | 0.00 | 0.21 | 0.00 | 87 | 1016.4 |
| 20260504170845 | 58 | 293 | 0.0 | 0.0 | 0.00 | 0.21 | 0.00 | 87 | 1016.3 |
| 20260504170839 | 58 | 293 | 0.0 | 0.0 | 0.00 | 0.21 | 0.00 | 87 | 1016.4 |
| 20260504150822 | 62 | 293 | 0.0 | 0.0 | 0.00 | 0.21 | 0.00 | 90 | 1016.3 |
| 20260504150316 | 62 | 293 | 0.0 | 0.0 | 0.00 | 0.21 | 0.00 | 90 | 1016.2 |
| 20260504141248 | 63 | 293 | 0.0 | 0.0 | 0.00 | 0.21 | 0.00 | 90 | 1016.3 |
| 20260504140748 | 63 | 293 | 0.0 | 0.0 | 0.00 | 0.21 | 0.00 | 90 | 1016.2 |
| 20260504140248 | 64 | 293 | 0.0 | 0.0 | 0.00 | 0.21 | 0.00 | 90 | 1016.0 |
| 20260504140231 | 64 | 293 | 0.0 | 0.0 | 0.00 | 0.21 | 0.21 | 90 | 1016.2 |
| 20260504130732 | 64 | 293 | 0.0 | 0.0 | 0.00 | 0.21 | 0.21 | 89 | 1016.4 |
| 20260504130234 | 64 | 293 | 0.0 | 0.0 | 0.00 | 0.21 | 0.21 | 89 | 1016.5 |
| 20260504120225 | 64 | 293 | 0.0 | 0.0 | 0.00 | 0.21 | 0.21 | 86 | 1016.4 |
| 20260504110721 | 67 | 293 | 0.0 | 0.0 | 0.00 | 0.21 | 0.21 | 82 | 1015.7 |
| 20260504110220 | 67 | 293 | 0.0 | 0.0 | 0.00 | 0.21 | 0.21 | 82 | 1015.7 |
| 20260504100220 | 67 | 293 | 0.0 | 0.0 | 0.00 | 0.21 | 0.21 | 82 | 1014.7 |